Tracking 27112 objects as of 27-Mar-2023
HD Live streaming from Space Station
objects crossing your sky now

STARLINK-3864

Track STARLINK-3864 now!
10-day predictions
STARLINK-3864 is classified as:


NORAD ID: 52468
Int'l Code: 2022-049T
Perigee: 546.0 km
Apogee: 547.8 km
Inclination: 53.2 °
Period: 95.4 minutes
Semi major axis: 6917 km
RCS: Unknown
Launch date: May 6, 2022
Source: United States (US)
Launch site: AIR FORCE EASTERN TEST RANGE (AFETR)
Your satellite tracking list
Your tracking list is empty




NASA's NSSDC Master Catalog

Two Line Element Set (TLE):
1 52468U 22049T   23085.86447380 -.00003797  00000-0 -22062-3 0  9993
2 52468  53.2154 222.1538 0001262  81.9663 278.1472 15.08833400 49381
Source of the keplerian elements: AFSPC